This demonstration page uses our WeatherBlox Daily Observations layout. Learn more.

Left ArrowRight Arrow

38.83388, -104.82136

Hourly Observations for January 30, 2021

Temp ( °F °C ) Dew Point ( °F °C ) Humidity (%) Winds ( mph kmh ) Pressure ( in mb ) Visibility ( mi km ) Precip ( " mm )
12:56 am 00:56 Mostly Cloudy 38 3.2 11 -11.8 33 33 WSW 3 6 29.18 988 10 16 0.00 0.00
1:56 am 01:56 Mostly Cloudy 36 2.1 10 -12 35 35 N 7 11 29.17 988 10 16 0.00 0.00
2:56 am 02:56 Mostly Cloudy 39 3.9 10 -12.3 30 30 WNW 8 13 29.15 987 10 16 0.00 0.00
3:56 am 03:56 Mostly Cloudy 37 3 11 -11.4 34 34 N 12 19 29.17 988 10 16 0.00 0.00
4:56 am 04:56 Cloudy 39 3.7 12 -10.9 34 34 NW 22 35 29.21 989 10 16 0.00 0.00
5:43 am 05:43 Mostly Cloudy 39 4 12 -11 33 33 N 17 28 29.23 990 10 16 0.00 0.00
5:52 am 05:52 Mostly Cloudy 36 2 14 -10 41 41 NW 14 22 29.24 990 10 16 0.00 0.00
5:56 am 05:56 Mostly Cloudy 36 2.2 14 -10.1 40 40 NNW 18 30 29.23 990 10 16 0.00 0.00
6:56 am 06:56 Partly Cloudy 38 3.5 13 -10.6 35 35 NW 22 35 29.28 992 10 16 0.00 0.00
7:56 am 07:56 Sunny 38 3.3 14 -10 37 37 N 10 17 29.36 994 10 16 0.00 0.00
8:56 am 08:56 Sunny 38 3.4 15 -9.6 38 38 N 8 13 29.41 996 10 16 0.00 0.00
9:56 am 09:56 Sunny 39 3.9 19 -7.4 44 44 N 9 15 29.44 997 10 16 0.00 0.00
10:56 am 10:56 Sunny 41 5 19 -7.1 42 42 NNE 9 15 29.47 998 10 16 0.00 0.00
11:56 am 11:56 Sunny 43 6.2 14 -10.1 30 30 N 13 20 29.47 998 10 16 0.00 0.00
12:56 pm 12:56 Mostly Sunny 43 6.1 10 -12 26 26 N 8 13 29.49 999 10 16 0.00 0.00
1:56 pm 13:56 Mostly Cloudy 42 5.7 11 -11.9 27 27 N 8 13 29.53 1000 10 16 0.00 0.00
2:56 pm 14:56 Mostly Cloudy 41 5.2 11 -11.5 29 29 N 13 20 29.56 1001 10 16 0.00 0.00
3:58 pm 15:58 Mostly Cloudy 40 4.4 14 -10.2 34 34 NNW 12 19 29.82 1010 10 16 0.00 0.00
4:58 pm 16:58 Mostly Cloudy 39 3.7 14 -9.8 37 37 NNW 3 6 29.88 1012 10 16 0.00 0.00
5:58 pm 17:58 Partly Cloudy 37 3 15 -9.6 39 39 NW 10 17 29.93 1014 10 16 0.00 0.00
6:58 pm 18:58 Mostly Cloudy 36 2.1 16 -9.1 44 44 WNW 17 28 29.99 1016 10 16 0.00 0.00
7:58 pm 19:58 Clear 36 2 11 -11.6 36 36 WNW 10 17 30.01 1016 10 16 0.00 0.00
8:58 pm 20:58 Clear 33 0.4 13 -10.4 45 45 WNW 5 7 30.08 1019 10 16 0.00 0.00
9:58 pm 21:58 Clear 33 0.3 8 -13.2 36 36 W 5 7 30.11 1019 10 16 0.00 0.00
10:58 pm 22:58 Clear 30 -0.9 10 -12 43 43 Calm 30.16 1021 10 16 0.00 0.00
11:58 pm 23:58 Clear 34 1 13 -10.8 41 41 SSW 6 9 30.13 1020 10 16 0.00 0.00

Powered by AerisWeather